Stündliche Wetter Czyzow

Heute, 21 Oktober, Mittwoch

Zeit Temperatur Niederschläge Wind Luftdruck Luftfeuchtigkeit
00:00 +6°C° 0 mm 2 m/S 741 mmHg 79%
01:00 +7°C° 0 mm 1 m/S 740 mmHg 78%
02:00 +7°C° 0 mm 1 m/S 740 mmHg 77%
03:00 +7°C° 0 mm 1 m/S 740 mmHg 76%
04:00 +7°C° 0 mm 1 m/S 740 mmHg 76%
05:00 +7°C° 0 mm 1 m/S 740 mmHg 75%
06:00 +7°C° 0 mm 1 m/S 739 mmHg 74%
07:00 +6°C° 0 mm 2 m/S 739 mmHg 73%
08:00 +8°C° 0 mm 2 m/S 739 mmHg 68%
09:00 +10°C° 0 mm 2 m/S 739 mmHg 64%
10:00 +12°C° 0 mm 2 m/S 739 mmHg 60%
11:00 +13°C° 0 mm 1 m/S 739 mmHg 57%
12:00 +15°C° 0 mm 1 m/S 739 mmHg 54%
13:00 +16°C° 0 mm 1 m/S 739 mmHg 52%
14:00 +15°C° 0 mm 1 m/S 739 mmHg 57%
15:00 +14°C° 0 mm 1 m/S 738 mmHg 62%
16:00 +14°C° 0 mm 1 m/S 738 mmHg 67%
17:00 +13°C° 0 mm 1 m/S 738 mmHg 71%
18:00 +12°C° 0 mm 2 m/S 738 mmHg 74%
19:00 +10°C° 0 mm 3 m/S 739 mmHg 77%
20:00 +10°C° 0 mm 2 m/S 739 mmHg 78%
21:00 +9°C° 0 mm 2 m/S 739 mmHg 80%
22:00 +9°C° 0 mm 2 m/S 739 mmHg 81%
23:00 +8°C° 0 mm 2 m/S 739 mmHg 82%

Morgen, 22 Oktober, Donnerstag

Zeit Temperatur Niederschläge Wind Luftdruck Luftfeuchtigkeit
00:00 +8°C° 0 mm 2 m/S 739 mmHg 82%
01:00 +9°C° 0 mm 1 m/S 739 mmHg 83%
02:00 +8°C° 0 mm 2 m/S 739 mmHg 84%
03:00 +8°C° 0 mm 2 m/S 739 mmHg 85%
04:00 +8°C° 0 mm 3 m/S 739 mmHg 86%
05:00 +8°C° 0 mm 2 m/S 739 mmHg 85%
06:00 +8°C° 0 mm 2 m/S 740 mmHg 84%
07:00 +9°C° 0 mm 2 m/S 740 mmHg 83%
08:00 +12°C° 0 mm 2 m/S 740 mmHg 77%
09:00 +14°C° 0 mm 2 m/S 740 mmHg 70%
10:00 +16°C° 0 mm 2 m/S 740 mmHg 64%
11:00 +17°C° 0 mm 2 m/S 740 mmHg 62%
12:00 +18°C° 0 mm 2 m/S 740 mmHg 59%
13:00 +19°C° 0 mm 2 m/S 740 mmHg 57%
14:00 +18°C° 0 mm 2 m/S 739 mmHg 62%
15:00 +18°C° 0 mm 1 m/S 739 mmHg 68%
16:00 +16°C° 0 mm 1 m/S 739 mmHg 73%
17:00 +15°C° 0 mm 1 m/S 739 mmHg 76%
18:00 +14°C° 0 mm 1 m/S 739 mmHg 79%
19:00 +13°C° 0 mm 1 m/S 740 mmHg 81%
20:00 +13°C° 0 mm 1 m/S 739 mmHg 81%
21:00 +13°C° 0 mm 1 m/S 739 mmHg 81%
22:00 +13°C° 0 mm 1 m/S 739 mmHg 81%
23:00 +13°C° 0 mm 1 m/S 739 mmHg 81%

übermorgen, 23 Oktober, Freitag

Zeit Temperatur Niederschläge Wind Luftdruck Luftfeuchtigkeit
00:00 +13°C° 0 mm 1 m/S 739 mmHg 81%
01:00 +13°C° 0 mm 1 m/S 739 mmHg 81%
02:00 +12°C° 0 mm 1 m/S 739 mmHg 82%
03:00 +12°C° 0 mm 1 m/S 738 mmHg 83%
04:00 +11°C° 0 mm 1 m/S 738 mmHg 83%
05:00 +11°C° 0 mm 1 m/S 738 mmHg 84%
06:00 +11°C° 0 mm 1 m/S 738 mmHg 84%
07:00 +10°C° 0 mm 2 m/S 738 mmHg 84%
08:00 +12°C° 0 mm 2 m/S 738 mmHg 78%
09:00 +13°C° 0 mm 2 m/S 738 mmHg 73%
10:00 +15°C° 0 mm 2 m/S 737 mmHg 67%
11:00 +16°C° 0 mm 2 m/S 737 mmHg 65%
12:00 +17°C° 0 mm 2 m/S 737 mmHg 63%
13:00 +18°C° 0 mm 3 m/S 737 mmHg 60%
14:00 +17°C° 0 mm 2 m/S 736 mmHg 66%
15:00 +16°C° 0 mm 2 m/S 736 mmHg 71%
16:00 +15°C° 0 mm 1 m/S 736 mmHg 77%
17:00 +15°C° 0 mm 1 m/S 736 mmHg 80%
18:00 +14°C° 0 mm 1 m/S 736 mmHg 83%
19:00 +13°C° 0 mm 1 m/S 736 mmHg 86%
20:00 +13°C° 0 mm 1 m/S 736 mmHg 87%
21:00 +12°C° 0 mm 1 m/S 736 mmHg 88%
22:00 +12°C° 0 mm 1 m/S 736 mmHg 88%
23:00 +12°C° 0 mm 1 m/S 735 mmHg 88%

24 Oktober, Samstag

Zeit Temperatur Niederschläge Wind Luftdruck Luftfeuchtigkeit
00:00 +12°C° 0 mm 1 m/S 735 mmHg 89%
01:00 +12°C° 0 mm 1 m/S 735 mmHg 89%
02:00 +12°C° 0 mm 1 m/S 735 mmHg 88%
03:00 +12°C° 0 mm 1 m/S 735 mmHg 88%
04:00 +12°C° 0 mm 2 m/S 734 mmHg 87%
05:00 +12°C° 1 mm 2 m/S 734 mmHg 90%
06:00 +12°C° 1 mm 2 m/S 734 mmHg 92%
07:00 +11°C° 1 mm 3 m/S 734 mmHg 94%
08:00 +12°C° 1 mm 4 m/S 735 mmHg 92%
09:00 +12°C° 1 mm 4 m/S 735 mmHg 89%
10:00 +12°C° 1 mm 5 m/S 736 mmHg 87%
11:00 +13°C° 0.2 mm 6 m/S 736 mmHg 81%
12:00 +13°C° 0.2 mm 6 m/S 736 mmHg 75%
13:00 +14°C° 0.2 mm 7 m/S 736 mmHg 69%
14:00 +13°C° 0.1 mm 6 m/S 737 mmHg 69%
15:00 +11°C° 0.1 mm 6 m/S 737 mmHg 69%
16:00 +9°C° 0.1 mm 6 m/S 737 mmHg 69%
17:00 +8°C° 0 mm 5 m/S 738 mmHg 72%
18:00 +8°C° 0 mm 4 m/S 738 mmHg 74%
19:00 +7°C° 0 mm 4 m/S 739 mmHg 76%
20:00 +6°C° 0 mm 4 m/S 739 mmHg 77%
21:00 +7°C° 0 mm 3 m/S 740 mmHg 78%
22:00 +7°C° 0 mm 3 m/S 740 mmHg 80%
23:00 +5°C° 0 mm 3 m/S 740 mmHg 81%

25 Oktober, Sonntag

Zeit Temperatur Niederschläge Wind Luftdruck Luftfeuchtigkeit
00:00 +5°C° 0 mm 3 m/S 741 mmHg 83%
01:00 +4°C° 0 mm 3 m/S 741 mmHg 85%
02:00 +5°C° 0 mm 2 m/S 741 mmHg 85%
03:00 +5°C° 0 mm 2 m/S 741 mmHg 86%
04:00 +5°C° 0 mm 2 m/S 741 mmHg 86%
05:00 +5°C° 0 mm 2 m/S 741 mmHg 85%
06:00 +5°C° 0 mm 2 m/S 741 mmHg 84%
07:00 +6°C° 0 mm 1 m/S 741 mmHg 83%
08:00 +8°C° 0 mm 1 m/S 741 mmHg 75%
09:00 +9°C° 0 mm 1 m/S 741 mmHg 66%
10:00 +11°C° 0 mm 1 m/S 741 mmHg 58%
11:00 +12°C° 0 mm 1 m/S 740 mmHg 54%
12:00 +13°C° 0 mm 1 m/S 740 mmHg 50%
13:00 +13°C° 0 mm 0 m/S 740 mmHg 46%
14:00 +13°C° 0 mm 1 m/S 740 mmHg 51%
15:00 +12°C° 0 mm 1 m/S 739 mmHg 56%
16:00 +11°C° 0 mm 1 m/S 739 mmHg 61%
17:00 +10°C° 0 mm 1 m/S 739 mmHg 63%
18:00 +8°C° 0 mm 2 m/S 739 mmHg 66%
19:00 +7°C° 0 mm 2 m/S 739 mmHg 68%
20:00 +7°C° 0 mm 2 m/S 739 mmHg 69%
21:00 +8°C° 0 mm 1 m/S 739 mmHg 71%
22:00 +7°C° 0 mm 1 m/S 739 mmHg 72%
23:00 +7°C° 0 mm 1 m/S 739 mmHg 74%

26 Oktober, Montag

Zeit Temperatur Niederschläge Wind Luftdruck Luftfeuchtigkeit
00:00 +7°C° 0 mm 1 m/S 739 mmHg 76%
01:00 +7°C° 0 mm 1 m/S 739 mmHg 77%
02:00 +7°C° 0 mm 1 m/S 739 mmHg 79%
03:00 +6°C° 0 mm 1 m/S 739 mmHg 80%
04:00 +6°C° 0 mm 1 m/S 738 mmHg 82%
05:00 +6°C° 0 mm 1 m/S 738 mmHg 82%
06:00 +5°C° 0 mm 2 m/S 738 mmHg 82%
07:00 +5°C° 0 mm 2 m/S 738 mmHg 82%
08:00 +7°C° 0 mm 2 m/S 738 mmHg 76%
09:00 +9°C° 0 mm 2 m/S 738 mmHg 69%
10:00 +12°C° 0 mm 2 m/S 738 mmHg 63%
11:00 +13°C° 0 mm 2 m/S 738 mmHg 60%
12:00 +14°C° 0 mm 2 m/S 737 mmHg 58%
13:00 +14°C° 0 mm 3 m/S 737 mmHg 55%
14:00 +14°C° 0 mm 2 m/S 737 mmHg 60%
15:00 +13°C° 0 mm 2 m/S 737 mmHg 65%
16:00 +12°C° 0 mm 2 m/S 737 mmHg 69%
17:00 +10°C° 0 mm 2 m/S 737 mmHg 72%
18:00 +10°C° 0 mm 1 m/S 737 mmHg 75%
19:00 +9°C° 0 mm 1 m/S 738 mmHg 78%
20:00 +9°C° 0 mm 1 m/S 738 mmHg 79%
21:00 +9°C° 0 mm 1 m/S 738 mmHg 80%
22:00 +8°C° 0 mm 1 m/S 739 mmHg 81%
23:00 +8°C° 0 mm 1 m/S 739 mmHg 81%

27 Oktober, Dienstag

Zeit Temperatur Niederschläge Wind Luftdruck Luftfeuchtigkeit
00:00 +8°C° 0 mm 1 m/S 739 mmHg 82%
01:00 +8°C° 0 mm 1 m/S 739 mmHg 83%
02:00 +8°C° 0 mm 1 m/S 739 mmHg 83%
03:00 +8°C° 0 mm 1 m/S 740 mmHg 82%
04:00 +8°C° 0 mm 1 m/S 740 mmHg 82%
05:00 +8°C° 0 mm 1 m/S 740 mmHg 82%
06:00 +8°C° 0 mm 1 m/S 741 mmHg 82%
07:00 +8°C° 0 mm 1 m/S 741 mmHg 81%
08:00 +9°C° 0 mm 0 m/S 741 mmHg 75%
09:00 +11°C° 0 mm 0 m/S 741 mmHg 69%
10:00 +13°C° 0 mm 0 m/S 742 mmHg 63%
11:00 +13°C° 0 mm 0 m/S 742 mmHg 62%
12:00 +15°C° 0 mm 1 m/S 742 mmHg 60%
13:00 +16°C° 0 mm 1 m/S 742 mmHg 59%
14:00 +15°C° 0 mm 1 m/S 742 mmHg 64%
15:00 +14°C° 0 mm 1 m/S 742 mmHg 69%
16:00 +13°C° 0 mm 1 m/S 742 mmHg 75%
17:00 +12°C° 0 mm 1 m/S 742 mmHg 78%
18:00 +11°C° 0 mm 1 m/S 742 mmHg 82%
19:00 +10°C° 0 mm 1 m/S 742 mmHg 85%
20:00 +10°C° 0 mm 1 m/S 742 mmHg 86%
21:00 +9°C° 0 mm 1 m/S 743 mmHg 87%
22:00 +9°C° 0 mm 1 m/S 743 mmHg 88%
23:00 +9°C° 0 mm 1 m/S 743 mmHg 88%
Mehr zeigen

Wir brauchen deine Erlaubnis

Meteoprog und unser Service Anbieter werden persönliche Daten aufbewahren, so wie Cookies, Geräte Bezeichnung oder ähnliche Technologien von deinem Gerät und Prozess, so wie Persönliche Daten Inhalte und Werbungen, genauso wie social Media und den Verkehr zu analysieren.

  • Aufbewahrung und/oder Zugang zu deiner Geräte Informationen.

    Cookies, Geräte Bezeichnung oder andere Informationen, können aufbewahrt oder Zugang zu deinem Gerät erhalten, für den Grund, der oben angegeben wird.

  • Personalisierte Werbung und Inhalte, Messungen, Einblick in das Publikum und Produkt Entwicklung.

    Werbungen und Inhalte können personalisiert werden, basierend auf ein Profil. Mehr Daten können besser personalisierte Werbungen und Inhalte hinzufügen. Werbung und Inhalte können gezeigt und gemessen werden. Einblicke über das Publikum, welche die Werbung gesehen haben und den Inhalt, können abgeleitet werden. So wie Daten können genutzt werden, um es zu verbessern oder die Benutzer Erfahrung zu verbessern das System und die Software.

Wenn du “Ich stimme zu” klickst, erlaubst du uns, die Cookies zu benutzen die Geräte Bezeichnung, den Web oder ähnliche Technologien zu benutzen. Deine Settings, können in deinem Gerät bei deinem Browser geändert werden.

Für den bestimmten Zweck, berechtigten Interessen beruhen darauf, mehr als auf den Inhalt. Du kannst mehr darüber in unseren Privaten und Cookie Politik lesen.